[[{"header":{"parameterUnit":"m.s-1","parameterCategory":1,"la1":30.2991,"la2":30.254,"lo1":-89.0895,"lo2":-89.0444,"dy":0.0017,"dx":0.0017,"nx":28,"ny":28,"refTime":"2025-12-13T03:00:00:Z","depth":0,"parameterNumber":2,"parameterNumberName":"U-component_of_WINDS"},"data":[0,0,0,0,0,0,0,0,0,0,0,0,0,0,0,0,0,0,0,0,0,0,0,0,0,0,0,0,0,0,0,0,0,0,0,0,0,0,0,0,0,0,0,0,0,0,0,0,0,0,0,0,0,0,0,0,0,0,0.2412,0.2413,0,0.2433,0.2433,0.2433,0.2432,0.2432,0.2431,0.2431,0.2454,0.2455,0.2456,0,0,0,0,0,0,0,0,0,0,0,0,0,0.2376,0.2377,0.2412,0.2413,0.2413,0.2433,0.2433,0.2433,0.2432,0.2432,0.2431,0.2431,0.2454,0.2455,0.2456,0,0,0,0,0,0,0,0,0,0,0,0,0,0.2394,0.2377,0.2412,0.2415,0.2415,0.2433,0.2433,0.2433,0.2432,0.2432,0.2431,0.2431,0.2453,0.2455,0.2456,0.2473,0,0,0.246,0.2461,0,0,0,0,0,0,0,0,0.2393,0.2395,0.2414,0.2415,0.2415,0.2429,0.2429,0.2447,0.2432,0.2426,0.2431,0.2431,0.2446,0.2448,0.2453,0.2474,0.2475,0.246,0.2461,0.2462,0.2462,0,0,0,0,0,0,0,0.2391,0.2394,0.2421,0.2414,0.2415,0.2416,0.2418,0.2432,0.2438,0.2426,0.2426,0.2429,0.2447,0.2452,0.2454,0.2476,0.246,0.2461,0.2462,0.2463,0.2515,0.2515,0,0,0,0,0,0,0.2389,0.2393,0.242,0.2421,0.2402,0.2417,0.2419,0.2425,0.2438,0.244,0.2429,0.2428,0.245,0.2452,0.2454,0.2477,0.2462,0.2463,0.2464,0.2514,0.2515,0.2515,0,0,0,0,0,0,0.2389,0.2392,0.2419,0.2407,0.2411,0.2418,0.2425,0.2426,0.2431,0.244,0.2442,0.2433,0.245,0.2453,0.2469,0.2478,0.2464,0.2465,0.2513,0.2514,0.2515,0.2521,0,0,0,0,0,0,0.2388,0.2391,0.2397,0.2407,0.2411,0.2432,0.2425,0.2427,0.2433,0.2433,0.2444,0.2446,0.2449,0.2467,0.247,0.2479,0.2466,0.2513,0.2514,0.2515,0.2521,0.2522,0.2524,0,0,0,0,0,0.2386,0.2398,0.2397,0.2401,0.2418,0.2433,0.2435,0.2438,0.2434,0.244,0.2447,0.2445,0.2476,0.2469,0.2472,0.2482,0.2512,0.2514,0.2515,0.252,0.2522,0.2524,0,0,0,0,0,0,0.2389,0.2399,0.2399,0.2414,0.2423,0.2432,0.2441,0.244,0.2451,0.245,0.2454,0.2457,0.2474,0.248,0.2471,0.2501,0.2494,0.2496,0.2496,0.2499,0.25,0.2499,0.2467,0,0,0,0,0,0.2392,0.2401,0.241,0.2423,0.2427,0.2433,0.2439,0.2441,0.2451,0.2454,0.2461,0.2471,0.2483,0.2491,0.2503,0.2521,0.2525,0.253,0.2532,0.2533,0.2535,0.2548,0.2551,0.252,0.252,0.252,0,0,0.2397,0.2404,0.2409,0.2424,0.243,0.2442,0.2436,0.2448,0.2457,0.2456,0.2472,0.2478,0.249,0.2508,0.2516,0.2513,0.2545,0.2535,0.2536,0.2537,0.2549,0.2552,0.2555,0.2521,0.252,0.252,0,0,0.2412,0.2418,0.243,0.2437,0.2447,0.2451,0.2454,0.2464,0.2468,0.2484,0.2485,0.2496,0.2516,0.2525,0.2532,0.2552,0.2553,0.2556,0.2566,0.2578,0.258,0.2582,0.2591,0.2594,0.2558,0.2558,0.2558,0,0.2417,0.2433,0.2436,0.2448,0.2455,0.2455,0.2468,0.2475,0.2489,0.2495,0.2491,0.2517,0.2525,0.2546,0.2551,0.2556,0.2561,0.2555,0.2579,0.2582,0.2584,0.2593,0.2596,0.2558,0.2558,0.2558,0.2558,0,0.244,0.2452,0.246,0.2474,0.2482,0.2494,0.25,0.2508,0.251,0.2515,0.2533,0.2542,0.2556,0.2561,0.2562,0.2583,0.2581,0.2578,0.2572,0.2587,0.2596,0.2599,0.2559,0.2559,0.2559,0.2559,0,0,0.2458,0.2473,0.2476,0.2483,0.2495,0.2504,0.2518,0.2531,0.2539,0.2549,0.2562,0.2579,0.2577,0.2585,0.2588,0.2599,0.2617,0.2595,0.2595,0.26,0.2642,0.2645,0.2649,0.2617,0.2617,0.2618,0.2642,0,0.2475,0.2498,0.2502,0.2523,0.2534,0.2535,0.2547,0.2557,0.2562,0.2574,0.258,0.2594,0.2589,0.2594,0.2605,0.2612,0.2626,0.2611,0.263,0.2631,0.2628,0.2653,0.2656,0.2678,0.2645,0.2646,0.2646,0,0.2499,0.2509,0.2531,0.2543,0.2548,0.2559,0.2573,0.2583,0.2595,0.2598,0.2608,0.261,0.2626,0.2618,0.2642,0.2631,0.264,0.2645,0.2646,0.2649,0.264,0.2658,0.2685,0.2689,0.2651,0.2651,0.265,0,0.2511,0.2531,0.2547,0.2552,0.2566,0.2574,0.2581,0.2592,0.26,0.2613,0.2619,0.2633,0.2641,0.2653,0.2659,0.2653,0.2683,0.2675,0.2688,0.2688,0.2694,0.2694,0.2725,0.2698,0.2698,0.2698,0.2698,0,0.2531,0.2544,0.2553,0.2563,0.2579,0.2583,0.26,0.2606,0.2616,0.2629,0.2631,0.2643,0.265,0.2664,0.2669,0.2689,0.2692,0.2697,0.2698,0.2697,0.2697,0.2703,0.2702,0.2699,0.2698,0.2698,0.2698,0,0.2547,0.2553,0.2571,0.2583,0.2586,0.2598,0.2609,0.262,0.2626,0.2642,0.2646,0.2656,0.2672,0.268,0.27,0.2704,0.2727,0.2726,0.2722,0.2723,0.2736,0.2735,0.2773,0.2779,0.2747,0.2747,0.2747,0,0.256,0.257,0.2584,0.2592,0.2599,0.2612,0.2621,0.2626,0.2636,0.2651,0.266,0.2677,0.269,0.2717,0.2726,0.2743,0.2744,0.2756,0.2746,0.2746,0.2746,0.2746,0.2748,0.2758,0.2758,0.2758,0.2758,0,0.2582,0.2585,0.2597,0.2611,0.2621,0.2632,0.2644,0.2651,0.2658,0.2669,0.2686,0.2696,0.2717,0.2734,0.2751,0.276,0.2761,0.2761,0.2765,0.2765,0.2763,0.2766,0.2729,0.2761,0.276,0.276,0.276,0.276,0.2598,0.2608,0.262,0.2634,0.2643,0.2654,0.2665,0.2672,0.2686,0.2703,0.2706,0.2724,0.2738,0.2761,0.277,0.2786,0.2783,0.2788,0.279,0.2792,0.2793,0.276,0.2789,0.2789,0.2789,0.2789,0.2789,0,0.2622,0.2629,0.2642,0.2658,0.267,0.2669,0.2682,0.2692,0.2708,0.272,0.2733,0.2754,0.2771,0.2782,0.28,0.2811,0.2812,0.2815,0.2815,0.2817,0.2794,0.2789,0.2814,0.2814,0.2814,0.2814,0.2814,0.2814,0.2635,0.2653,0.2658,0.2681,0.2689,0.2706,0.2714,0.2725,0.2735,0.2757,0.2771,0.2778,0.2791,0.281,0.2826,0.2829,0.2837,0.284,0.2844,0.2821,0.2819,0.2816,0.2812,0.2841,0.2841,0.2866,0.2866,0.2867]},{"header":{"parameterUnit":"m.s-1","parameterCategory":1,"la1":30.2991,"la2":30.254,"lo1":-89.0895,"lo2":-89.0444,"dy":0.0017,"dx":0.0017,"nx":28,"ny":28,"refTime":"2025-12-13T03:00:00:Z","depth":0,"parameterNumber":3,"parameterNumberName":"V-component_of_WINDS"},"data":[0,0,0,0,0,0,0,0,0,0,0,0,0,0,0,0,0,0,0,0,0,0,0,0,0,0,0,0,0,0,0,0,0,0,0,0,0,0,0,0,0,0,0,0,0,0,0,0,0,0,0,0,0,0,0,0,0,0,1.3636,1.3637,0,1.3717,1.3718,1.3719,1.3733,1.3732,1.3731,1.3731,1.3818,1.3821,1.3824,0,0,0,0,0,0,0,0,0,0,0,0,0,1.35,1.3503,1.3636,1.3637,1.3638,1.3717,1.3718,1.3719,1.3733,1.3732,1.3731,1.3731,1.3817,1.3821,1.3824,0,0,0,0,0,0,0,0,0,0,0,0,0,1.3568,1.3503,1.3636,1.3655,1.3657,1.3716,1.3718,1.3719,1.3733,1.3732,1.3731,1.373,1.3816,1.3821,1.3825,1.3873,0,0,1.3839,1.384,0,0,0,0,0,0,0,0,1.3564,1.3573,1.3651,1.3653,1.3656,1.3714,1.3702,1.3771,1.3733,1.3704,1.3731,1.373,1.3785,1.3792,1.3809,1.3877,1.3881,1.3839,1.3842,1.3844,1.3845,0,0,0,0,0,0,0,1.3559,1.357,1.3668,1.3652,1.3655,1.3661,1.3669,1.3715,1.375,1.3707,1.3708,1.3717,1.3786,1.3805,1.3811,1.3882,1.3839,1.3843,1.3846,1.3847,1.3997,1.3998,0,0,0,0,0,0,1.3551,1.3566,1.3666,1.3671,1.3607,1.3664,1.3674,1.3696,1.3749,1.3756,1.3718,1.3717,1.3798,1.3806,1.3814,1.3876,1.3844,1.3848,1.385,1.3996,1.3997,1.3999,0,0,0,0,0,0,1.3548,1.3559,1.3662,1.3619,1.3632,1.3667,1.3693,1.3698,1.3717,1.3757,1.3764,1.373,1.3797,1.3808,1.3859,1.388,1.385,1.3854,1.3994,1.3996,1.3998,1.3999,0,0,0,0,0,0,1.3544,1.3558,1.3575,1.3619,1.3634,1.3703,1.3694,1.3701,1.3724,1.3725,1.3771,1.3778,1.3797,1.3852,1.3863,1.3885,1.3857,1.3992,1.3995,1.3997,1.3997,1.4001,1.4004,0,0,0,0,0,1.3539,1.3573,1.3576,1.3588,1.3656,1.3705,1.3714,1.3734,1.3726,1.3745,1.3771,1.3776,1.3875,1.3857,1.387,1.3893,1.3991,1.3994,1.3997,1.3996,1.4,1.4004,0,0,0,0,0,0,1.3533,1.3579,1.3583,1.3632,1.3664,1.3707,1.3731,1.3738,1.3774,1.3773,1.3798,1.3809,1.3858,1.3881,1.386,1.3944,1.3933,1.3938,1.3928,1.3932,1.3935,1.393,1.3861,0,0,0,0,0,1.3537,1.357,1.361,1.3649,1.3665,1.3695,1.3717,1.373,1.3765,1.3779,1.3809,1.3844,1.3883,1.3909,1.3947,1.4,1.4012,1.4023,1.4026,1.4029,1.4034,1.4067,1.4073,1.4008,1.4008,1.4008,0,0,1.3546,1.3576,1.3595,1.3649,1.3675,1.3712,1.3707,1.3745,1.3773,1.3785,1.3835,1.3858,1.3899,1.3952,1.3977,1.3972,1.4054,1.4032,1.4034,1.4038,1.407,1.4076,1.4082,1.401,1.401,1.4009,0,0,1.3582,1.3606,1.3643,1.367,1.3709,1.3729,1.3738,1.378,1.3796,1.3845,1.3856,1.3891,1.3957,1.3987,1.4011,1.4059,1.4067,1.4071,1.4088,1.412,1.4125,1.413,1.4149,1.4156,1.4076,1.4076,1.4076,0,1.3589,1.3642,1.3661,1.37,1.3724,1.3736,1.3774,1.38,1.3851,1.3868,1.3862,1.3947,1.3975,1.4036,1.4048,1.4066,1.4079,1.4066,1.4122,1.4127,1.4132,1.4151,1.4158,1.4076,1.4076,1.4076,1.4076,0,1.365,1.3687,1.3712,1.376,1.3787,1.3825,1.3852,1.3878,1.3889,1.391,1.3962,1.3997,1.4043,1.4059,1.407,1.4122,1.4118,1.4117,1.4106,1.4138,1.4157,1.4164,1.4077,1.4077,1.4076,1.4076,0,0,1.3685,1.3743,1.3752,1.3775,1.382,1.385,1.389,1.3934,1.3956,1.3991,1.4027,1.4084,1.4083,1.411,1.4125,1.4152,1.4192,1.4148,1.415,1.4157,1.4255,1.4257,1.4265,1.4196,1.4198,1.4199,1.4252,0,1.3727,1.3797,1.3816,1.3876,1.3912,1.3925,1.396,1.3993,1.4014,1.4049,1.4074,1.4114,1.4109,1.4126,1.4153,1.4181,1.4212,1.4177,1.4233,1.4234,1.4224,1.4274,1.4276,1.4324,1.4259,1.426,1.4261,0,1.3786,1.3822,1.3885,1.3927,1.3943,1.3974,1.4017,1.405,1.4089,1.4103,1.4133,1.4146,1.4191,1.4176,1.424,1.4216,1.424,1.4257,1.426,1.4267,1.4251,1.4285,1.434,1.4348,1.4272,1.4271,1.4271,0,1.3808,1.3871,1.3918,1.3937,1.3986,1.4008,1.4031,1.4068,1.4094,1.4132,1.415,1.4193,1.4217,1.4252,1.4277,1.4264,1.4339,1.4327,1.4355,1.4354,1.4371,1.437,1.4433,1.4383,1.4383,1.4383,1.4383,0,1.3855,1.3893,1.3928,1.3957,1.4002,1.4024,1.4069,1.4092,1.4125,1.4161,1.4174,1.4207,1.4238,1.4276,1.4296,1.4347,1.4357,1.4372,1.4377,1.4372,1.437,1.4389,1.4387,1.4385,1.4384,1.4384,1.4384,0,1.3886,1.3911,1.3963,1.4006,1.4018,1.4049,1.4087,1.4117,1.4139,1.4184,1.4196,1.4231,1.4277,1.4305,1.4363,1.4377,1.4434,1.4437,1.4421,1.4424,1.4451,1.4449,1.4529,1.4542,1.4482,1.4482,1.4483,0,1.3915,1.3946,1.3992,1.4016,1.4038,1.4076,1.4103,1.4127,1.4154,1.4201,1.4226,1.4272,1.4311,1.4384,1.4416,1.4462,1.4468,1.4493,1.4475,1.4469,1.4471,1.447,1.4474,1.4496,1.4497,1.4497,1.4498,0,1.3965,1.3976,1.4013,1.4055,1.4085,1.412,1.4154,1.4174,1.4204,1.4235,1.4281,1.4311,1.437,1.4417,1.4466,1.4491,1.4501,1.4503,1.4512,1.4508,1.4498,1.4506,1.4431,1.4501,1.4501,1.4501,1.45,1.45,1.3998,1.4026,1.4064,1.4105,1.4133,1.4165,1.4196,1.4222,1.426,1.431,1.4322,1.4371,1.4412,1.4477,1.4504,1.4545,1.4541,1.4554,1.4558,1.4561,1.4563,1.449,1.4553,1.4553,1.4553,1.4553,1.4553,0,1.4051,1.4075,1.4113,1.416,1.4193,1.4197,1.4236,1.4264,1.4307,1.4343,1.438,1.4435,1.4481,1.4517,1.4565,1.4591,1.4597,1.4603,1.4602,1.4609,1.4562,1.455,1.4598,1.4598,1.4598,1.4598,1.4598,1.4598,1.4082,1.4131,1.4146,1.421,1.4235,1.4282,1.4305,1.4335,1.4364,1.4424,1.4462,1.4485,1.4522,1.4573,1.4616,1.4626,1.4644,1.465,1.466,1.4616,1.4612,1.4607,1.4596,1.4653,1.4653,1.4704,1.4705,1.4705]}]]